Regional Weather Roundup
Issued by NWS

Home | Current Version | Previous Version | Text Only | Print | Product List | Glossary On
Versions: 1 2 3 4 5 6 7 8 9 10 11 12 13 14 15 16 17 18 19 20 21 22 23 24 25 26 27 28 29 30 31 32 33 34 35 36 37 38 39 40 41 42 43 44 45 46 47 48 49 50
000
ASUS46 KPQR 292110
RWROR

OREGON REGIONAL WEATHER ROUNDUP
NATIONAL WEATHER SERVICE PORTLAND OR
200 PM PDT FRI MAY 29 2015

NOTE: "FAIR" INDICATES FEW OR NO CLOUDS BELOW 12,000 FEET WITH
NO SIGNIFICANT WEATHER AND/OR OBSTRUCTIONS TO VISIBILITY.

ORZ001>013-292200-
NORTHWEST OREGON


CITY           SKY/WX    TMP DP  RH WIND       PRES   REMARKS
ASTORIA        CLOUDY    60  51  72 W6        30.02F
NEWPORT        CLOUDY    54  52  94 NW7       30.07S
PORTLAND       MOSUNNY   79  58  48 W8        29.93F
VANCOUVER WA   SUNNY     77  57  50 NW7       29.93F
SCAPPOOSE      SUNNY     76  60  57 VRB3      29.93F
HILLSBORO      SUNNY     78  58  49 NW5       29.92F
AURORA         SUNNY     77  60  55 VRB3      29.94F
MCMINNVILLE    MOSUNNY   78  59  51 VRB3      29.94F
SALEM          MOSUNNY   79  57  46 VRB3      29.92F
CORVALLIS      PTSUNNY   75  55  50 NW12      29.96F
EUGENE         CLOUDY    77  57  50 VRB5      29.95F
$$

ORZ021-028-292200-
SOUTHWEST OREGON


CITY           SKY/WX    TMP DP  RH WIND       PRES   REMARKS
NORTH BEND     CLOUDY    59  52  77 N12       30.04F
BROOKINGS      PTSUNNY   55  55 100 W5        30.03R
ROSEBURG       MOSUNNY   82  57  42 N5        29.92F
SEXTON SUMMIT  MOSUNNY   74  51  44 CALM      30.04F
MEDFORD        MOSUNNY   88  52  29 VRB6      29.88F
$$

ORZ014>016-041-292200-
COLUMBIA GORGE


CITY           SKY/WX    TMP DP  RH WIND       PRES   REMARKS
TROUTDALE      SUNNY     78  59  51 W9        29.91F
THE DALLES     SUNNY     88  51  28 NW9       29.84F
$$

ORZ029>031-041-044-049-050-061>064-502-503-505>511-292200-
EASTERN OREGON


CITY           SKY/WX    TMP DP  RH WIND       PRES   REMARKS
REDMOND        MOSUNNY   83  46  27 N10       29.94F
BEND           MOSUNNY   84  36  17 W7        29.96F
PRINEVILLE     MOSUNNY   82  43  24 N7        29.95F
KLAMATH FALLS  MOSUNNY   79  42  26 SW6       30.01F
LAKEVIEW       MOSUNNY   81  37  21 SE12G17   30.07F
HERMISTON      SUNNY     91  48  22 NE12      29.85F
PENDLETON      SUNNY     89  48  24 NE8       29.89F
JOHN DAY       PTSUNNY   80  40  24 S8        30.02F
MEACHAM        PTSUNNY   77  46  33 VRB3      30.03F
LA GRANDE      PTSUNNY   79  45  29 S13G20    30.00S
BAKER CITY     PTSUNNY   79  47  32 E10G21    30.04F
BURNS          MOSUNNY   81  34  18 NE6       30.06F
ROME             N/A     83  34  17 NW8       30.04F
ONTARIO        SUNNY     84  49  29 SE5       30.01F
$$


USA.gov is the U.S. government's official web portal to all federal, state and local government web resources and services.